{"data":{"norad_id":63841,"epoch":"2026-05-25T00:30:36.374112Z","epoch_age_seconds":69358,"freshness":"FRESH","line1":"1 63841U 25093F   26145.02125433  .00018170  00000+0  66774-3 0  9998","line2":"2 63841  43.0017   7.0373 0001789 280.8488  79.2163 15.27602001 59424","mean_motion":15.27602001,"eccentricity":0.0001789,"inclination_deg":43.0017,"raan_deg":7.0373,"arg_perigee_deg":280.8488,"mean_anomaly_deg":79.2163,"bstar":0.00066774,"rev_number":5942,"period_min":94.265391054564,"perigee_km":481.75576351452,"apogee_km":484.2106723285,"semimajor_km":6861.1202179215,"source":"CELESTRAK","updated_at":"2026-05-25T13:38:20.146866Z"}}